| time (UTC) | temp F | wind direction | speed MPH | gust MPH | rain 1hr in | rain 24hr in | rain mn in | humidity % | barometer mb |
| 20260905220057 | 56 | 243 | 2.0 | 4.0 | 0.00 | 0.00 | 0.00 | 77 | 1025.9 |
| 20260905214556 | 56 | 210 | 2.0 | 4.0 | 0.00 | 0.00 | 0.00 | 76 | 1025.8 |
| 20260905213059 | 56 | 204 | 2.0 | 3.0 | 0.00 | 0.00 | 0.00 | 75 | 1026.0 |
| 20260905211602 | 57 | 203 | 0.0 | 2.0 | 0.00 | 0.00 | 0.00 | 74 | 1026.0 |
| 20260905210108 | 58 | 202 | 2.0 | 4.0 | 0.00 | 0.00 | 0.00 | 73 | 1025.9 |
| 20260905204553 | 58 | 178 | 2.0 | 3.0 | 0.00 | 0.00 | 0.00 | 73 | 1025.9 |
| 20260905203051 | 58 | 176 | 1.0 | 3.0 | 0.00 | 0.00 | 0.00 | 72 | 1025.9 |
| 20260905201550 | 58 | 175 | 2.0 | 4.0 | 0.00 | 0.00 | 0.00 | 72 | 1025.6 |
| 20260905200055 | 59 | 147 | 2.0 | 4.0 | 0.00 | 0.00 | 0.00 | 71 | 1025.6 |
| 20260905194548 | 59 | 104 | 1.0 | 3.0 | 0.00 | 0.00 | 0.00 | 68 | 1025.3 |
| 20260905193051 | 60 | 104 | 0.0 | 3.0 | 0.00 | 0.00 | 0.00 | 67 | 1025.4 |
| 20260905191548 | 61 | 104 | 1.0 | 3.0 | 0.00 | 0.00 | 0.00 | 64 | 1025.3 |
| 20260905190056 | 62 | 104 | 0.0 | 2.0 | 0.00 | 0.00 | 0.00 | 62 | 1025.1 |
| 20260905184546 | 63 | 104 | 2.0 | 4.0 | 0.00 | 0.00 | 0.00 | 61 | 1025.0 |
| 20260905183052 | 64 | 104 | 2.0 | 6.0 | 0.00 | 0.00 | 0.00 | 60 | 1024.9 |
| 20260905181547 | 65 | 117 | 2.0 | 4.0 | 0.00 | 0.00 | 0.00 | 58 | 1024.8 |
| 20260905180045 | 66 | 111 | 2.0 | 4.0 | 0.00 | 0.00 | 0.00 | 56 | 1024.9 |
| 20260905174542 | 68 | 119 | 3.0 | 8.0 | 0.00 | 0.00 | 0.00 | 54 | 1024.8 |
| 20260905173040 | 69 | 108 | 4.0 | 9.0 | 0.00 | 0.00 | 0.00 | 52 | 1024.6 |
| 20260905171546 | 70 | 130 | 4.0 | 11.0 | 0.00 | 0.00 | 0.00 | 51 | 1024.5 |
| 20260905170039 | 69 | 133 | 6.0 | 10.0 | 0.00 | 0.00 | 0.00 | 51 | 1024.5 |
| 20260905164537 | 69 | 121 | 4.0 | 13.0 | 0.00 | 0.00 | 0.00 | 53 | 1024.4 |
| 20260905163039 | 70 | 144 | 9.0 | 15.0 | 0.00 | 0.00 | 0.00 | 51 | 1024.3 |
| 20260905161534 | 70 | 130 | 8.0 | 16.0 | 0.00 | 0.00 | 0.00 | 51 | 1024.2 |
| 20260905160034 | 70 | 152 | 11.0 | 17.0 | 0.00 | 0.00 | 0.00 | 50 | 1024.0 |
| 20260905154530 | 70 | 109 | 7.0 | 14.0 | 0.00 | 0.00 | 0.00 | 51 | 1023.9 |
| 20260905153039 | 70 | 123 | 10.0 | 14.0 | 0.00 | 0.00 | 0.00 | 52 | 1023.7 |
| 20260905151529 | 70 | 148 | 9.0 | 16.0 | 0.00 | 0.00 | 0.00 | 53 | 1023.6 |
| 20260905150028 | 70 | 103 | 11.0 | 15.0 | 0.00 | 0.00 | 0.00 | 51 | 1023.7 |
| 20260905144528 | 70 | 86 | 8.0 | 13.0 | 0.00 | 0.00 | 0.00 | 53 | 1023.7 |
| 20260905143028 | 70 | 156 | 8.0 | 17.0 | 0.00 | 0.00 | 0.00 | 53 | 1023.8 |
| 20260905141526 | 70 | 152 | 7.0 | 16.0 | 0.00 | 0.00 | 0.00 | 53 | 1023.8 |
| 20260905140024 | 70 | 119 | 9.0 | 17.0 | 0.00 | 0.00 | 0.00 | 53 | 1023.8 |
| 20260905134523 | 70 | 129 | 10.0 | 16.0 | 0.00 | 0.00 | 0.00 | 53 | 1023.7 |
| 20260905133022 | 70 | 121 | 7.0 | 16.0 | 0.00 | 0.00 | 0.00 | 54 | 1023.7 |
| 20260905131521 | 70 | 129 | 6.0 | 16.0 | 0.00 | 0.00 | 0.00 | 53 | 1023.6 |
| 20260905130019 | 70 | 117 | 8.0 | 20.0 | 0.00 | 0.00 | 0.00 | 56 | 1023.7 |
| 20260905124522 | 69 | 146 | 5.0 | 17.0 | 0.00 | 0.00 | 0.00 | 59 | 1023.7 |
| 20260905123015 | 69 | 157 | 7.0 | 13.0 | 0.00 | 0.00 | 0.00 | 58 | 1023.5 |
| 20260905121514 | 68 | 87 | 8.0 | 16.0 | 0.00 | 0.00 | 0.00 | 59 | 1023.5 |
| 20260905120019 | 68 | 105 | 7.0 | 16.0 | 0.00 | 0.00 | 0.00 | 59 | 1023.3 |
| 20260905114512 | 67 | 164 | 7.0 | 14.0 | 0.00 | 0.00 | 0.00 | 63 | 1023.4 |
| 20260905113010 | 67 | 101 | 5.0 | 16.0 | 0.00 | 0.00 | 0.00 | 62 | 1023.4 |
| 20260905111509 | 68 | 137 | 9.0 | 15.0 | 0.00 | 0.00 | 0.00 | 61 | 1023.5 |
| 20260905110007 | 67 | 106 | 8.0 | 15.0 | 0.00 | 0.00 | 0.00 | 62 | 1023.4 |
| 20260905104502 | 66 | 158 | 9.0 | 16.0 | 0.00 | 0.00 | 0.00 | 63 | 1023.4 |
| 20260905103002 | 65 | 85 | 12.0 | 17.0 | 0.00 | 0.00 | 0.00 | 64 | 1023.4 |
| 20260905101601 | 65 | 120 | 9.0 | 16.0 | 0.00 | 0.00 | 0.00 | 65 | 1023.3 |
| 20260905100120 | 65 | 130 | 9.0 | 14.0 | 0.00 | 0.00 | 0.00 | 68 | 1023.4 |
| 20260905094558 | 65 | 129 | 10.0 | 16.0 | 0.00 | 0.00 | 0.00 | 67 | 1023.4 |
| 20260905093054 | 64 | 135 | 9.0 | 15.0 | 0.00 | 0.00 | 0.00 | 70 | 1023.2 |
| 20260905091557 | 64 | 86 | 7.0 | 11.0 | 0.00 | 0.00 | 0.00 | 72 | 1023.2 |
| 20260905090112 | 63 | 146 | 8.0 | 14.0 | 0.00 | 0.00 | 0.00 | 74 | 1023.0 |
| 20260905084548 | 61 | 106 | 7.0 | 13.0 | 0.00 | 0.00 | 0.00 | 78 | 1022.8 |
| 20260905083051 | 61 | 115 | 9.0 | 16.0 | 0.00 | 0.00 | 0.00 | 79 | 1022.6 |
| 20260905081552 | 61 | 96 | 7.0 | 15.0 | 0.00 | 0.00 | 0.00 | 79 | 1022.5 |
| 20260905080050 | 61 | 116 | 8.0 | 14.0 | 0.00 | 0.00 | 0.00 | 82 | 1022.4 |
| 20260905074542 | 59 | 98 | 9.0 | 14.0 | 0.00 | 0.00 | 0.00 | 85 | 1022.0 |
| 20260905073040 | 58 | 186 | 7.0 | 15.0 | 0.00 | 0.00 | 0.00 | 87 | 1022.0 |
| 20260905071539 | 58 | 129 | 9.0 | 18.0 | 0.00 | 0.00 | 0.00 | 89 | 1021.6 |
| 20260905070035 | 57 | 88 | 6.0 | 10.0 | 0.00 | 0.00 | 0.00 | 89 | 1021.2 |
| 20260905064534 | 57 | 116 | 7.0 | 13.0 | 0.00 | 0.00 | 0.00 | 90 | 1021.3 |
| 20260905063033 | 56 | 98 | 5.0 | 9.0 | 0.00 | 0.00 | 0.00 | 92 | 1021.2 |
| 20260905061530 | 56 | 107 | 5.0 | 10.0 | 0.00 | 0.00 | 0.00 | 92 | 1020.9 |
| 20260905060043 | 56 | 111 | 6.0 | 10.0 | 0.00 | 0.00 | 0.00 | 92 | 1020.7 |
| 20260905054536 | 56 | 112 | 5.0 | 9.0 | 0.00 | 0.00 | 0.00 | 92 | 1020.5 |
| 20260905053029 | 56 | 104 | 8.0 | 11.0 | 0.00 | 0.00 | 0.00 | 92 | 1020.4 |
| 20260905051528 | 56 | 110 | 7.0 | 12.0 | 0.00 | 0.00 | 0.00 | 92 | 1020.3 |
| 20260905050020 | 57 | 94 | 9.0 | 14.0 | 0.00 | 0.00 | 0.00 | 92 | 1020.1 |
| 20260905044516 | 57 | 109 | 7.0 | 12.0 | 0.00 | 0.00 | 0.00 | 92 | 1019.7 |
| 20260905043015 | 57 | 89 | 6.0 | 12.0 | 0.00 | 0.00 | 0.00 | 92 | 1019.6 |
| 20260905041512 | 57 | 106 | 7.0 | 14.0 | 0.00 | 0.00 | 0.00 | 93 | 1019.4 |
| 20260905040010 | 58 | 100 | 8.0 | 11.0 | 0.00 | 0.00 | 0.00 | 93 | 1019.4 |
| 20260905034510 | 58 | 116 | 6.0 | 11.0 | 0.00 | 0.00 | 0.00 | 93 | 1019.2 |
| 20260905033007 | 58 | 70 | 5.0 | 9.0 | 0.00 | 0.00 | 0.00 | 92 | 1019.2 |
| 20260905031506 | 58 | 110 | 6.0 | 10.0 | 0.00 | 0.00 | 0.00 | 93 | 1019.2 |
| 20260905030101 | 58 | 113 | 7.0 | 11.0 | 0.00 | 0.00 | 0.00 | 92 | 1019.2 |
| 20260905024558 | 58 | 98 | 6.0 | 9.0 | 0.00 | 0.00 | 0.00 | 92 | 1019.0 |
| 20260905023056 | 58 | 110 | 5.0 | 8.0 | 0.00 | 0.00 | 0.00 | 92 | 1018.8 |
| 20260905021557 | 59 | 101 | 5.0 | 9.0 | 0.00 | 0.00 | 0.00 | 91 | 1018.8 |
| 20260905020054 | 59 | 83 | 5.0 | 8.0 | 0.00 | 0.00 | 0.00 | 91 | 1018.7 |
| 20260905014552 | 59 | 110 | 4.0 | 8.0 | 0.00 | 0.00 | 0.00 | 90 | 1018.7 |
| 20260905013051 | 60 | 126 | 4.0 | 9.0 | 0.00 | 0.00 | 0.00 | 90 | 1018.7 |
| 20260905011552 | 60 | 111 | 6.0 | 12.0 | 0.00 | 0.00 | 0.00 | 90 | 1018.5 |
| 20260905004543 | 61 | 91 | 7.0 | 11.0 | 0.00 | 0.00 | 0.00 | 90 | 1018.4 |
| 20260905003042 | 61 | 142 | 7.0 | 11.0 | 0.00 | 0.00 | 0.00 | 90 | 1018.8 |
| 20260905001548 | 61 | 112 | 7.0 | 13.0 | 0.00 | 0.00 | 0.00 | 90 | 1018.8 |
| 20260905000052 | 61 | 117 | 7.0 | 12.0 | 0.00 | 0.00 | 0.00 | 89 | 1018.9 |
| 20260904234538 | 61 | 115 | 8.0 | 14.0 | 0.00 | 0.00 | 0.00 | 89 | 1018.3 |
| 20260904233034 | 62 | 90 | 7.0 | 15.0 | 0.00 | 0.00 | 0.00 | 89 | 1018.3 |
| 20260904231535 | 62 | 144 | 9.0 | 15.0 | 0.00 | 0.00 | 0.00 | 88 | 1018.2 |
| 20260904230048 | 62 | 110 | 7.0 | 13.0 | 0.00 | 0.00 | 0.00 | 88 | 1017.9 |
| 20260904224525 | 63 | 133 | 7.0 | 13.0 | 0.00 | 0.00 | 0.00 | 88 | 1017.9 |
| 20260904223023 | 63 | 123 | 6.0 | 15.0 | 0.00 | 0.00 | 0.00 | 89 | 1018.0 |
| 20260904221520 | 64 | 127 | 9.0 | 18.0 | 0.00 | 0.00 | 0.00 | 89 | 1017.8 |